Location: *
(43.0833°N, 13.0500°E)
Time: 07:31:05
(UTC+00:00)

Cosmos 1371 Rocket - Pass Details

Date: 15 November 2019
Orbit: 755 x 789 km, 74.0° (Epoch: 12 December)

Event Time Altitude Azimuth Distance (km) Brightness Sun altitude
Rises 18:21:52 0° 336° (NNW) 3,232 7.5 -28.7°
Reaches altitude 10° 18:24:16 10° 333° (NNW) 2,298 6.8 -29.2°
Enters shadow 18:29:08 60° 269° (W) 867 4.4 -30.1°
